Weather History for KJFZ - March, 2013

Change the Weather History Date:

Sunday, March 3, 2013

  Actual Average (KBLF) Record (KBLF)
Temperature  
Mean Temperature 22 °F 41 °F  
Max Temperature 26 °F 50 °F 74 °F (1974)
Min Temperature 17 °F 33 °F -2 °F (1980)
Degree Days  
Heating Degree Days 44 24  
Month to date heating degree days 72  
Since 1 July heating degree days 3565  
Cooling Degree Days 0 0  
Month to date cooling degree days 0  
Year to date cooling degree days 0  
Moisture  
Dew Point 18 °F    
Average Humidity 91    
Maximum Humidity 100    
Minimum Humidity 69    
Precipitation  
Precipitation 0.00 in 0.11 in 1.39 in (1997)
Month to date precipitation 0.33  
Year to date precipitation 5.99  
Snow  
Snow 0.00 in - - ()
Month to date snowfall  
Since 1 July snowfall  
Snow Depth -    
Sea Level Pressure  
Sea Level Pressure 29.90 in    
Wind  
Wind Speed 7 mph (WNW)    
Max Wind Speed 14 mph    
Max Gust Speed -    
Visibility 7 miles    
Events      
T = Trace of Precipitation, MM = Missing Value Source: NWS Daily Summary

Daily Weather History Graph

Daily Weather History Graph

Search for Another Location

Airport or City:

Trip Planner

Search our weather history database for the weather conditions in past years. The results will help you decide how hot, cold, wet, or windy it might be!

Date:

Astronomy

Mar. 03, 2013 Rise Set
Actual Time 6:55 AM EST 6:23 PM EST
Civil Twilight 6:29 AM EST 6:49 PM EST
Nautical Twilight 5:58 AM EST 7:19 PM EST
Astronomical Twilight 5:28 AM EST 7:49 PM EST
Moon No Moon Rise 10:18 AM EST (3/3)
Length of Visible Light 12h 20m
Length of Day
11h 28m
Waning Gibbous, 64% of the Moon is Illuminated
Mar 3
Waning Gibbous
Mar 4
Last Quarter
Mar 11
New
Mar 19
First Quarter
Mar 27
Full

Hourly Weather History & Observations

Time (EST) Temp. Windchill Dew Point Humidity Pressure Visibility Wind Dir Wind Speed Gust Speed Precip Events Conditions
12:15 AM 19.4 °F 9.5 °F 19.4 °F 100% 29.88 in 10.0 mi WNW 8.1 mph - N/A   Unknown
12:35 AM 21.2 °F 12.6 °F 19.4 °F 93% 29.89 in 9.0 mi WNW 6.9 mph - N/A   Partly Cloudy
12:55 AM 19.4 °F 10.4 °F 19.4 °F 100% 29.88 in 5.0 mi WNW 6.9 mph - N/A   Scattered Clouds
1:15 AM 19.4 °F 7.9 °F 17.6 °F 93% 29.89 in 10.0 mi WNW 10.4 mph - N/A   Overcast
1:35 AM 19.4 °F 11.5 °F 17.6 °F 93% 29.90 in 10.0 mi WNW 5.8 mph - N/A   Mostly Cloudy
1:55 AM 19.4 °F 10.4 °F 17.6 °F 93% 29.89 in 10.0 mi WNW 6.9 mph - N/A   Mostly Cloudy
2:35 AM 19.4 °F 10.4 °F 15.8 °F 86% 29.89 in 10.0 mi West 6.9 mph - N/A   Overcast
2:55 AM 19.4 °F 11.5 °F 17.6 °F 93% 29.88 in 10.0 mi West 5.8 mph - N/A   Mostly Cloudy
3:15 AM 19.4 °F 10.4 °F 17.6 °F 93% 29.89 in 4.0 mi Variable 6.9 mph - N/A   Partly Cloudy
3:35 AM 19.4 °F 10.4 °F 19.4 °F 100% 29.88 in 2.5 mi WNW 6.9 mph - N/A   Clear
3:55 AM 19.4 °F 14.3 °F 17.6 °F 93% 29.88 in 9.0 mi WNW 3.5 mph - N/A   Scattered Clouds
4:15 AM 19.4 °F 12.8 °F 19.4 °F 100% 29.89 in 3.0 mi NW 4.6 mph - N/A   Partly Cloudy
4:35 AM 19.4 °F 11.5 °F 19.4 °F 100% 29.88 in 8.0 mi Variable 5.8 mph - N/A   Partly Cloudy
4:55 AM 19.4 °F 12.8 °F 19.4 °F 100% 29.87 in 4.0 mi Variable 4.6 mph - N/A   Unknown
5:15 AM 19.4 °F 11.5 °F 17.6 °F 93% 29.89 in 4.0 mi Variable 5.8 mph - N/A   Unknown
5:35 AM 19.4 °F 11.5 °F 17.6 °F 93% 29.88 in 3.0 mi WNW 5.8 mph - N/A   Unknown
5:55 AM 19.4 °F 10.4 °F 17.6 °F 93% 29.88 in 5.0 mi West 6.9 mph - N/A   Partly Cloudy
6:15 AM 17.6 °F 6.4 °F 17.6 °F 100% 29.88 in 10.0 mi WNW 9.2 mph - N/A   Mostly Cloudy
6:35 AM 17.6 °F 6.4 °F 17.6 °F 100% 29.88 in 10.0 mi WNW 9.2 mph - N/A   Overcast
6:55 AM 17.6 °F 8.2 °F 17.6 °F 100% 29.88 in 10.0 mi WNW 6.9 mph - N/A   Mostly Cloudy
7:15 AM 17.6 °F 7.3 °F 17.6 °F 100% 29.89 in 9.0 mi WNW 8.1 mph - N/A   Mostly Cloudy
7:35 AM 17.6 °F 7.3 °F 17.6 °F 100% 29.89 in 2.5 mi WNW 8.1 mph - N/A   Partly Cloudy
7:55 AM 17.6 °F 7.3 °F 17.6 °F 100% 29.90 in 1.5 mi WNW 8.1 mph - N/A   Clear
8:15 AM 17.6 °F 7.3 °F 17.6 °F 100% 29.91 in 1.8 mi WNW 8.1 mph - N/A   Clear
8:35 AM 17.6 °F 8.2 °F 17.6 °F 100% 29.90 in 1.8 mi NW 6.9 mph - N/A   Mostly Cloudy
8:55 AM 19.4 °F 10.4 °F 19.4 °F 100% 29.91 in 8.0 mi NW 6.9 mph - N/A   Partly Cloudy
9:15 AM 19.4 °F 11.5 °F 19.4 °F 100% 29.91 in 6.0 mi WNW 5.8 mph - N/A   Unknown
9:35 AM 19.4 °F 11.5 °F 17.6 °F 93% 29.90 in 10.0 mi Variable 5.8 mph - N/A   Unknown
9:55 AM 19.4 °F 11.5 °F 17.6 °F 93% 29.90 in 10.0 mi NW 5.8 mph - N/A   Partly Cloudy
10:15 AM 21.2 °F 10.1 °F 17.6 °F 86% 29.90 in 10.0 mi WNW 10.4 mph - N/A   Partly Cloudy
10:35 AM 21.2 °F 10.9 °F 19.4 °F 93% 29.90 in 7.0 mi WNW 9.2 mph - N/A   Partly Cloudy
10:55 AM 21.2 °F 10.9 °F 17.6 °F 86% 29.89 in 10.0 mi WNW 9.2 mph - N/A   Scattered Clouds
11:15 AM 21.2 °F 13.6 °F 17.6 °F 86% 29.91 in 4.0 mi Variable 5.8 mph - N/A   Partly Cloudy
11:35 AM 21.2 °F 13.6 °F 19.4 °F 93% 29.91 in 3.0 mi WNW 5.8 mph - N/A   Unknown
11:55 AM 21.2 °F 9.5 °F 19.4 °F 93% 29.90 in 2.5 mi WNW 11.5 mph - N/A   Clear
12:15 PM 23.0 °F 11.7 °F 19.4 °F 86% 29.89 in 3.0 mi WNW 11.5 mph - N/A   Clear
12:35 PM 23.0 °F 12.4 °F 17.6 °F 80% 29.90 in 10.0 mi NW 10.4 mph - N/A   Partly Cloudy
12:55 PM 26.6 °F 20.0 °F 17.6 °F 69% 29.89 in 10.0 mi Variable 5.8 mph - N/A   Mostly Cloudy
1:15 PM 24.8 °F 12.9 °F 17.6 °F 74% 29.88 in 10.0 mi WNW 13.8 mph - N/A   Partly Cloudy
1:35 PM 24.8 °F 16.1 °F 19.4 °F 80% 29.88 in 7.0 mi WNW 8.1 mph - N/A   Clear
1:55 PM 24.8 °F 15.3 °F 21.2 °F 86% 29.86 in 6.0 mi West 9.2 mph - N/A   Unknown
2:15 PM 24.8 °F 14.0 °F 21.2 °F 86% 29.87 in 10.0 mi WNW 11.5 mph - N/A   Unknown
2:35 PM 24.8 °F 16.9 °F 19.4 °F 80% 29.88 in 10.0 mi West 6.9 mph - N/A   Partly Cloudy
2:55 PM 24.8 °F 16.1 °F 17.6 °F 74% 29.88 in 10.0 mi West 8.1 mph - N/A   Partly Cloudy
3:15 PM 24.8 °F 16.1 °F 17.6 °F 74% 29.87 in 9.0 mi West 8.1 mph - N/A   Partly Cloudy
3:35 PM 24.8 °F 14.0 °F 17.6 °F 74% 29.88 in 10.0 mi WNW 11.5 mph - N/A   Partly Cloudy
3:55 PM 24.8 °F 14.0 °F 17.6 °F 74% 29.88 in 10.0 mi West 11.5 mph - N/A   Partly Cloudy
4:35 PM 23.0 °F 11.7 °F 19.4 °F 86% 29.88 in 7.0 mi WNW 11.5 mph - N/A   Scattered Clouds
4:55 PM 23.0 °F 14.7 °F 19.4 °F 86% 29.89 in 5.0 mi Variable 6.9 mph - N/A   Partly Cloudy
5:15 PM 23.0 °F 11.7 °F 19.4 °F 86% 29.90 in 3.0 mi West 11.5 mph - N/A   Scattered Clouds
5:35 PM 21.2 °F 11.7 °F 21.2 °F 100% 29.90 in 2.0 mi WNW 8.1 mph - N/A   Scattered Clouds
5:55 PM 21.2 °F 11.7 °F 19.4 °F 93% 29.91 in 10.0 mi WNW 8.1 mph - N/A   Mostly Cloudy
6:15 PM 21.2 °F 10.1 °F 19.4 °F 93% 29.92 in 10.0 mi WNW 10.4 mph - N/A   Mostly Cloudy
6:35 PM 21.2 °F 11.7 °F 17.6 °F 86% 29.92 in 10.0 mi WNW 8.1 mph - N/A   Scattered Clouds
6:55 PM 21.2 °F 11.7 °F 15.8 °F 80% 29.92 in 10.0 mi WNW 8.1 mph - N/A   Mostly Cloudy
7:35 PM 21.2 °F 14.9 °F 15.8 °F 80% 29.93 in 10.0 mi WNW 4.6 mph - N/A   Mostly Cloudy
7:55 PM 21.2 °F 13.6 °F 17.6 °F 86% 29.93 in 10.0 mi WNW 5.8 mph - N/A   Overcast
8:15 PM 21.2 °F 16.4 °F 17.6 °F 86% 29.94 in 10.0 mi West 3.5 mph - N/A   Mostly Cloudy
8:35 PM 21.2 °F 14.9 °F 17.6 °F 86% 29.94 in 10.0 mi West 4.6 mph - N/A   Partly Cloudy
8:55 PM 21.2 °F 14.9 °F 17.6 °F 86% 29.94 in 9.0 mi West 4.6 mph - N/A   Scattered Clouds
9:15 PM 21.2 °F 14.9 °F 19.4 °F 93% 29.95 in 10.0 mi West 4.6 mph - N/A   Partly Cloudy
9:35 PM 21.2 °F 12.6 °F 19.4 °F 93% 29.95 in 5.0 mi West 6.9 mph - N/A   Unknown
9:55 PM 21.2 °F 12.6 °F 21.2 °F 100% 29.94 in 4.0 mi West 6.9 mph - N/A   Unknown
10:15 PM 21.2 °F 11.7 °F 21.2 °F 100% 29.96 in 1.2 mi WNW 8.1 mph - N/A   Unknown
10:35 PM 19.4 °F 8.6 °F 19.4 °F 100% 29.95 in 4.0 mi WNW 9.2 mph - N/A   Unknown
10:55 PM 19.4 °F 9.5 °F 19.4 °F 100% 29.95 in 10.0 mi WNW 8.1 mph - N/A   Partly Cloudy
11:55 PM 21.2 °F 13.6 °F 19.4 °F 93% 29.95 in 10.0 mi West 5.8 mph - N/A   Mostly Cloudy